Home   Weather   Glengarriff   Past weeks
Flag for Ireland

Past Weather in Glengarriff, Ireland — October 2018

Currently: 50 °F. Partly sunny. (Weather station: Cork Airport, Ireland). See more current weather

October 2018 Weather in Glengarriff — Graph

°F

High & Low Weather Summary for October 2018

 TemperatureHumidityPressure
High64 °F (Oct 2, 3:30 pm)100% (Oct 1, 11:30 pm)30.77 "Hg (Oct 1, 11:30 pm)
Low32 °F (Oct 28, 4:00 am)49% (Oct 27, 3:30 pm)29.06 "Hg (Oct 12, 2:00 am)
Average50 °F84%30.05 "Hg
* Reported Oct 1 12:00 am — Oct 31 11:30 pm, Glengarriff. Weather by CustomWeather, © 2022

Note: Actual official high and low records may vary slightly from our data, if they occured in-between our weather recording intervals... More about our weather records

Glengarriff Weather History for October 1, 2018

Scroll right to see more
 ConditionsComfort  
Time TempWeatherWind HumidityBarometerVisibility
12:00 am
Mon, Oct 1
46 °FPassing clouds.12 mph76%30.42 "HgN/A
12:30 am46 °FPassing clouds.10 mph76%30.42 "HgN/A
1:00 am46 °FPassing clouds.8 mph76%30.39 "HgN/A
1:30 am45 °FPassing clouds.7 mph76%30.42 "HgN/A
2:00 am45 °FPassing clouds.7 mph76%30.42 "HgN/A
2:30 am43 °FPassing clouds.5 mph76%30.42 "HgN/A
3:00 am41 °FPassing clouds.5 mph87%30.42 "HgN/A
3:30 am43 °FPassing clouds.5 mph81%30.42 "HgN/A
4:00 am45 °FPassing clouds.3 mph76%30.42 "HgN/A
4:30 am43 °FPassing clouds.5 mph81%30.42 "HgN/A
5:00 am45 °FPassing clouds.5 mph81%30.42 "HgN/A
5:30 am45 °FPassing clouds.5 mph81%30.42 "HgN/A
6:00 am45 °FPassing clouds.3 mph76%30.45 "HgN/A
6:30 am45 °FPassing clouds.6 mph76%30.45 "HgN/A
7:00 am45 °FPassing clouds.2 mph81%30.45 "HgN/A
7:30 am45 °FPassing clouds.2 mph81%30.45 "HgN/A
8:00 am46 °FPartly sunny.5 mph76%30.45 "HgN/A
8:30 am46 °FPartly sunny.5 mph76%30.45 "HgN/A
9:00 am46 °FPartly sunny.6 mph76%30.45 "HgN/A
9:30 am48 °FPartly sunny.6 mph71%30.48 "HgN/A
10:00 am50 °FPartly sunny.6 mph67%30.48 "HgN/A
10:30 am50 °FPartly sunny.7 mph71%30.48 "HgN/A
11:00 am52 °FPartly sunny.5 mph62%30.48 "HgN/A
11:30 am52 °FPartly sunny.6 mph67%30.48 "HgN/A
12:00 pm52 °FPartly sunny.7 mph67%30.45 "HgN/A
12:30 pm54 °FPartly sunny.9 mph67%30.45 "HgN/A
1:00 pm54 °FBroken clouds.9 mph67%30.45 "HgN/A
1:30 pm54 °FBroken clouds.10 mph67%30.45 "HgN/A
2:00 pm54 °FBroken clouds.9 mph67%30.45 "HgN/A
2:30 pm55 °FScattered clouds.12 mph63%30.42 "HgN/A
3:00 pm55 °FScattered clouds.8 mph63%30.42 "HgN/A
3:30 pm57 °FScattered clouds.10 mph63%30.42 "HgN/A
4:00 pm59 °FScattered clouds.9 mph59%30.39 "HgN/A
4:30 pm57 °FPassing clouds.10 mph63%30.39 "HgN/A
5:00 pm57 °FPassing clouds.13 mph63%30.36 "HgN/A
5:30 pm57 °FPassing clouds.13 mph63%30.36 "HgN/A
6:00 pm55 °FPassing clouds.15 mph67%30.36 "HgN/A
6:30 pm55 °FScattered clouds.9 mph67%30.36 "HgN/A
7:00 pm54 °FPartly sunny.13 mph77%30.36 "HgN/A
7:30 pm54 °FPassing clouds.12 mph77%30.36 "HgN/A
8:00 pm54 °FPassing clouds.10 mph77%30.36 "HgN/A
8:30 pm52 °FPartly cloudy.8 mph82%30.36 "HgN/A
9:00 pm52 °FPassing clouds.9 mph88%30.36 "HgN/A
9:30 pm52 °FPassing clouds.8 mph88%30.33 "HgN/A
10:30 pm52 °FPassing clouds.9 mph94%30.33 "HgN/A
11:00 pm54 °FPassing clouds.10 mph94%30.33 "HgN/A
11:30 pm54 °FPassing clouds.14 mph100%30.30 "HgN/A
Weather by CustomWeather, © 2022

See weather overview